Flag for U.S.A. Weather past 2 weeks in West Palm Beach, Florida, U.S.A.

Now
79 °F

Passing clouds.


Feels Like: 80 °F
Forecast: 65 / 83 °F
Wind: 6 mph from Southeast

Location: Palm Beach International Airport

Current Time: Apr 1, 2015 at 6:37:50 PM

Latest Report: Apr 1, 2015 at 5:53 PM


Visibility: 10 mi

Pressure: 30.05 "Hg

Humidity: 48%

Dew point: 58 °F

Location of West Palm BeachLocation

Historic Weather in West Palm Beach — Graph

°F

West Palm Beach temperature yesterday

Maximum temperature yesterday: 78 °F (at 12:53 PM)
Minimum temperature yesterday: 58 °F (at 5:53 AM)
Average temperature yesterday: 70 °F

Past Weeks' High & Low Weather Summary

 TemperatureHumidityPressure
High91 °F (Mar 27, 12:53 PM)100% (Mar 24, 5:53 AM)30.31 "Hg (Mar 24, 5:53 AM)
Low52 °F (Mar 29, 6:53 AM)35% (Mar 20, 4:53 PM)29.79 "Hg (Mar 27, 3:53 PM)
Average74 °F70%30.04 "Hg
* Reported Mar 17 4:53 PM — Apr 1 4:53 PM, West Palm Beach, Weather by CustomWeather, © 2015

Note: Actual official high and low records may vary slightly from our data, if they occured in-between our weather recording intervals... More about our weather records

Advertising

West Palm Beach weather history for previous 24 hours

 ConditionsComfort  
Time TempWeatherWind HumidityBarometerVisibility
4:53 PM
Wed, Apr 1
80 °FScattered clouds.6 mph49%30.05 "Hg10 mi
3:53 PM82 °FPartly sunny.9 mph44%30.06 "Hg10 mi
2:53 PM82 °FScattered clouds.7 mph40%30.09 "Hg10 mi
1:53 PM81 °FBroken clouds.3 mph42%30.11 "Hg10 mi
12:53 PM81 °FBroken clouds.8 mph44%30.14 "Hg10 mi
11:53 AM79 °FPartly sunny.9 mph48%30.16 "Hg10 mi
10:53 AM77 °FPartly sunny.8 mph52%30.16 "Hg10 mi
9:53 AM75 °FPartly sunny.9 mph60%30.16 "Hg10 mi
8:53 AM70 °FScattered clouds.3 mph81%30.14 "Hg10 mi
7:53 AM66 °FPassing clouds.5 mph93%30.13 "Hg10 mi
6:53 AM66 °FPassing clouds.3 mph90%30.11 "Hg10 mi
5:53 AM67 °FPassing clouds.7 mph87%30.10 "Hg10 mi
4:53 AM67 °FPassing clouds.6 mph85%30.08 "Hg10 mi
3:53 AM69 °FPassing clouds.8 mph79%30.08 "Hg10 mi
2:53 AM69 °FPassing clouds.8 mph76%30.09 "Hg10 mi
1:53 AM68 °FPassing clouds.9 mph76%30.10 "Hg10 mi
12:53 AM69 °FPassing clouds.9 mph70%30.11 "Hg10 mi
11:53 PM
Tue, Mar 31
70 °FClear.9 mph68%30.11 "Hg10 mi
10:53 PM71 °FClear.6 mph63%30.11 "Hg10 mi
9:53 PM72 °FClear.6 mph61%30.11 "Hg10 mi
8:53 PM73 °FClear.7 mph59%30.09 "Hg10 mi
7:53 PM74 °FPassing clouds.9 mph57%30.08 "Hg10 mi
6:53 PM76 °FScattered clouds.12 mph52%30.07 "Hg10 mi
Weather by CustomWeather, © 2015

See weather overviewHow to use our weather pages